Ponciano Arriaga International Airport
MMSP : now visible

Airfield :











YOU CAN JOIN US ON...

 
LOGIN :

Register | Disclaimer

   EN    FR    IT 

 









Legend :    VFR   Marginal VFR   IFR   Intensive IFR   Very Intensive IFR
Visi :
Ceiling :
>= 8 km
>= 3000ft
5 to 8 km
1000 to 3000 ft
1500m to 5 km
500 to 1000 ft
800 to 1500m
200 to 500 ft
< 800m
< 200 ft
Symbols :   Thunderstorms  Fog  Heavy snow  Heavy precipitations  Wind > 20 kt






- Airport Elevation : 6035 ft
- IATA code : SLP


MMSP - Ponciano Arriaga International

CURRENT METAR :
  • 101240Z 00000KT 10SM SKC 10/M04 A3022 RMK HZY SC

EXPIRED METARs :
  • 101155Z 00000KT 8SM SKC 15/04 A3022 RMK SLP063 52006 957 SC
  • 101043Z 31004KT 8SM SKC 16/03 A3019

TAF TAF MMSP
Valid from the 10 at 12:00 until the 11 at 18:00 UTC


101008Z 1012/1118 25005KT P6SM SKC TX33/1021Z TN15/1012Z
FM101800 23015KT P6SM SCT200
BECMG 1101/1102 30005KT SCT020
PROB40 1106/1110 5SM RA VC TS BKN020CB



MET'MAP, your aeronautical weather chart ! - Copyright ORBIFLY December 2007 - Disclaimer

ORBIFLY MET'MAP TEAM :

Programming & Development : Alexandra Zaïnal
Concept & original design : Baudouin d'Aumeries
Assistance for programming : Marc-Olivier Méhu
Technical & hardware support : Manuel Goepfert

Contact : metmap@orbifly.com




SOURCES & CREDITS :

   NOAA       Earth
Advisory